Regional Weather Roundup
Issued by NWS

Home | Current Version | Previous Version | Text Only | Print | Product List | Glossary On
Versions: 1 2 3 4 5 6 7 8 9 10 11 12 13 14 15 16 17 18 19 20 21 22 23 24 25 26 27 28 29 30 31 32 33 34 35 36 37 38 39 40 41 42 43 44 45 46 47 48 49 50
300
ASUS44 KFWD 051101
RWRTX
NORTH TEXAS HOURLY WEATHER ROUNDUP
NATIONAL WEATHER SERVICE FORT WORTH TX
500 AM CST MON DEC 05 2016

NOTE: "FAIR" INDICATES FEW OR NO CLOUDS BELOW 12,000 FEET WITH NO
SIGNIFICANT WEATHER AND/OR OBSTRUCTIONS TO VISIBILITY.

TXZ118-119-051200-
DALLAS/FORT WORTH METROPLEX

CITY           SKY/WX    TMP DP  RH WIND       PRES   REMARKS
DFW AIRPORT    CLOUDY    47  41  80 N9        29.91F
DALLAS LOVE    CLOUDY    48  42  80 NE6       29.93F
FTW MEACHAM    CLOUDY    46  41  82 N7        29.93F
DAL-EXECUTIVE  CLOUDY    48  43  82 NE5       29.92F
FTW-ALLIANCE   MOCLDY    43  40  89 N3        29.93F
FTW-NAS-JRB    CLOUDY    47  42  83 NE8       29.94F
FTW-SPINKS     CLOUDY    45  43  92 N3        29.94F
ARLINGTON      CLOUDY    47  41  80 N7        29.93F
GRAND PRAIRIE  CLOUDY    47  41  80 N7        29.94F
MESQUITE       CLOUDY    47  42  84 NE3       29.94S
LANCASTER      CLOUDY    47  43  85 N3        29.94S
$$

TXZ091>094-102>105-117-120-121-131>134-051200-
NORTH CENTRAL TEXAS

CITY           SKY/WX    TMP DP  RH WIND       PRES   REMARKS
SHRMAN/DENISON CLOUDY    39  39 100 NE5       29.95F WCI  36
GAINESVILLE    PTCLDY    37  36  97 N6        29.96F WCI  32
BOWIE          CLEAR     38  38  99 N5        29.93F WCI  35
BRIDGEPORT     CLEAR     37  37 100 CALM      29.96F
DECATUR        CLEAR     39  39  99 CALM      29.94F
DENTON         PTCLDY    40  39  97 N5        29.94F WCI  37
MCKINNEY       CLOUDY    45  43  93 N5        29.95F
BONHAM         CLOUDY    43  43 100 N6        29.95F WCI  39
GREENVILLE     CLOUDY    46  43  87 NE3       29.95F
ROCKWALL       CLOUDY    46  44  91 NE5       29.94S
TERRELL        CLOUDY    47  42  83 NE9       29.92F
WAXAHACHIE     CLOUDY    45  44  97 N3        29.93F
CLEBURNE       CLOUDY    45  45 100 N6        29.93F
GRANBURY       CLOUDY    45  42  89 N5        29.93F
$$

TXZ083>090-098>101-113>116-127>130-139>142-154-155-051200-
WESTERN NORTH TEXAS

CITY           SKY/WX    TMP DP  RH WIND       PRES   REMARKS
WICHITA FALLS  CLEAR     37  36  96 W5        29.94F WCI  33
WF-KICKAPOO    CLEAR     37  37  99 N3        29.96F
VERNON           N/A     34  31  89 S3        29.95F
ABILENE        MOCLDY    42  41  96 N5        29.91F WCI  39
ABILENE-DYESS  CLEAR     40  38  93 CALM      29.91F
CISCO          PTCLDY    41  41 100 N5        29.90F WCI  38
BRECKENRIDGE   PTCLDY    42  42  99 N6        29.91F WCI  38
GRAHAM         PTCLDY    38  38 100 CALM      29.91F
MINERAL WELLS  PTCLDY    40  38  93 NE5       29.91F WCI  37
STEPHENVILLE   CLOUDY    44  40  87 N7        29.94F WCI  40
COMANCHE       CLOUDY    45  45 100 N7        29.92F
COLEMAN        PTCLDY    41  40  97 CALM      29.91F
$$

TXZ143>147-156>162-174-175-051200-
CENTRAL TEXAS

CITY           SKY/WX    TMP DP  RH WIND       PRES   REMARKS
WACO           MOCLDY    47  45  93 N7        29.92F
WACO-MCGREGOR  CLOUDY    47  45  93 N6        29.92F
HILLSBORO      MOCLDY    46  43  91 N5        29.92F
CORSICANA      CLOUDY    49  45  86 NE7       29.92F
MEXIA          CLOUDY    46  45  93 CALM      29.92S
CAMERON        DRIZZLE   48  47  94 N7        29.92R
KILLEEN        LGT RAIN  46  45  97 NE13      29.88F FOG
KILLEEN-SKYLRK LGT RAIN  47  45  93 N8        29.91F
FORT HOOD        N/A     46  46 100 N6        29.90
GATESVILLE       N/A     46  46 100 CALM      29.94S
HAMILTON       CLOUDY    46  46  99 N5        29.93S
$$

TXZ095>097-106>112-122>126-135>138-148>153-164>167-051200-
EAST TEXAS

CITY           SKY/WX    TMP DP  RH WIND       PRES   REMARKS
PARIS          CLOUDY    43  39  87 N8        29.96F WCI  38
SULPHUR SPRNGS CLOUDY    47  44  89 NE6       29.97F
MOUNT PLEASANT CLOUDY    46  43  90 NE6       29.95F
GILMER         CLOUDY    46  44  93 N3        29.94F
MINEOLA        CLOUDY    46  45  93 CALM      29.94S
TYLER          CLOUDY    48  45  89 NE8       29.90F
LONGVIEW       CLOUDY    47  46  97 NE7       29.92S
MARSHALL       CLOUDY    45  43  92 NE7       29.94F
ATHENS         CLOUDY    45  45 100 N10       29.90F WCI  39
PALESTINE      CLOUDY    48  47  98 N6        29.91F
JACKSONVILLE   CLOUDY    46  46  99 NE7       29.92R
HENDERSON      CLOUDY    46  45  97 N6        29.93R
CENTER         CLOUDY    47  46  95 E7        29.92F
NACOGDOCHES    CLOUDY    46  45  93 E14       29.86F
LUFKIN         RAIN      46  45  96 E15       29.86F FOG     WCI  40
$$

SUPPLEMENTAL OBSERVATIONS (CENTRAL)

CITY           SKY/WX    TMP DP  RH WIND       PRES   REMARKS
$$

SUPPLEMENTAL OBSERVATIONS (WEST)

CITY           SKY/WX    TMP DP  RH WIND       PRES   REMARKS
$$

SUPPLEMENTAL OBSERVATIONS (EAST)

CITY           SKY/WX    TMP DP  RH WIND       PRES   REMARKS
$$

SUPPLEMENTAL OBSERVATIONS ARE A COLLECTION OF AUTOMATED INSTRUMENTS
THAT ARE MAINTAINED BY A VARIETY OF FEDERAL AND STATE AGENCIES.
CERTAIN ELEMENTS...SUCH AS HUMIDITY VALUES AND SUSTAINED WIND
SPEEDS...MAY BE APPROXIMATED.





USA.gov is the U.S. government's official web portal to all federal, state and local government web resources and services.